Regional Weather Roundup
Issued by NWS Little Rock, AR

Home | Current Version | Previous Version | Text Only | Print | Product List | Glossary Off
Versions: 1 2 3 4 5 6 7 8 9 10 11 12 13 14 15 16 17 18 19 20 21 22 23 24 25 26 27 28 29 30 31 32 33 34 35 36 37 38 39 40 41 42 43 44 45 46 47 48 49 50

025
ASUS44 KLZK 040605
RWRLZK

WEATHER ROUNDUP FOR ARKANSAS
NATIONAL WEATHER SERVICE LITTLE ROCK AR
100 AM CDT WED MAY 04 2016

NOTE: "FAIR" INDICATES FEW OR NO CLOUDS BELOW 12,000 FEET WITH NO
SIGNIFICANT WEATHER AND/OR OBSTRUCTIONS TO VISIBILITY.

ARZ001-003-010-029-040700-
NORTHWEST ARKANSAS

CITY           SKY/WX    TMP DP  RH WIND       PRES   REMARKS
FAYETTEVILLE   CLEAR     45  44  97 S6        30.02S
6HR MIN TEMP:  45; 6HR MAX TEMP:  63;

FORT SMITH     CLEAR     53  46  77 W6        30.02S
6HR MIN TEMP:  53; 6HR MAX TEMP:  71;

HARRISON       CLEAR     51  40  65 SW3       30.00S
6HR MIN TEMP:  50; 6HR MAX TEMP:  63;

BENTONVILLE    CLEAR     50  41  71 SW5       30.01S
6HR MIN TEMP:  50; 6HR MAX TEMP:  64;

ROGERS         CLEAR     53  43  68 SW7       30.01S
6HR MIN TEMP:  53; 6HR MAX TEMP:  64;

SILOAM SPGS    CLEAR     50  37  62 S6        30.02S
6HR MIN TEMP:  50; 6HR MAX TEMP:  64;

HIGHFILL       CLEAR     49  44  83 SW6       30.00
6HR MIN TEMP:  49; 6HR MAX TEMP:  65;

$$

ARZ004-005-016-040700-
NORTH CENTRAL ARKANSAS

CITY           SKY/WX    TMP DP  RH WIND       PRES   REMARKS
BATESVILLE     PTCLDY    50  45  81 NW6       29.98S
6HR MIN TEMP:  48; 6HR MAX TEMP:  66;

FLIPPIN        CLEAR    N/A N/A N/A SW5       29.95F
MTN HOME       CLEAR     50  42  74 CALM      29.96F
6HR MIN TEMP:  49; 6HR MAX TEMP:  63;

$$

ARZ040-041-040700-
WEST CENTRAL ARKANSAS

CITY           SKY/WX    TMP DP  RH WIND       PRES   REMARKS
MENA           CLEAR     50  46  87 CALM      30.04S
MOUNT IDA      CLEAR     49  46  90 CALM      30.00S
6HR MIN TEMP:  49; 6HR MAX TEMP:  67;

$$

ARZ009-017-025-026-028-040700-
NORTHEAST ARKANSAS

CITY           SKY/WX    TMP DP  RH WIND       PRES   REMARKS
CORNING          N/A     52  52 100 W5        29.95S
JONESBORO      CLEAR     55  48  77 W6        29.95S
6HR MIN TEMP:  52; 6HR MAX TEMP:  66;

NEWPORT        CLEAR     55  48  77 W7        29.98S
6HR MIN TEMP:  55; 6HR MAX TEMP:  67;

WALNUT RIDGE   CLEAR     52  43  71 W7        29.94F
6HR MIN TEMP:  52; 6HR MAX TEMP:  66;

BLYTHEVILLE    CLEAR     55  50  83 CALM      29.95S
6HR MIN TEMP:  54; 6HR MAX TEMP:  65;

$$

ARZ022-023-033-042-044-040700-
CENTRAL ARKANSAS

CITY           SKY/WX    TMP DP  RH WIND       PRES   REMARKS
LITTLE ROCK    CLEAR     55  49  80 W7        30.00S
6HR MIN TEMP:  55; 6HR MAX TEMP:  68;

JACKSONVILLE   CLEAR     51  48  91 W1        29.99R
6HR MIN TEMP:  51; 6HR MAX TEMP:  67;

SEARCY         CLEAR     49  47  93 CALM      30.00S
6HR MIN TEMP:  49; 6HR MAX TEMP:  68;

HOT SPRINGS    CLEAR     52  50  93 W3        30.02S
6HR MIN TEMP:  52; 6HR MAX TEMP:  69;

RUSSELLVILLE   CLEAR     50  48  93 CALM      30.00S
6HR MIN TEMP:  49; 6HR MAX TEMP:  69;

$$

ARZ036-040700-
EAST ARKANSAS

CITY           SKY/WX    TMP DP  RH WIND       PRES   REMARKS
WEST MEMPHIS   CLEAR     55  50  83 SW3       29.95S
6HR MIN TEMP:  52; 6HR MAX TEMP:  64;

$$

ARZ050-053-066-070-073-040700-
SOUTHWEST ARKANSAS

CITY           SKY/WX    TMP DP  RH WIND       PRES   REMARKS
ARKADELPHIA    FAIR      57  57 100 CALM      30.02S
6HR MIN TEMP:  57; 6HR MAX TEMP:  71;

CAMDEN         CLEAR     50  48  93 CALM      30.02S
TEXARKANA      PTCLDY    57  51  80 CALM      30.04R
6HR MIN TEMP:  54; 6HR MAX TEMP:  70;

EL DORADO      CLEAR     51  50  96 CALM      30.03S
6HR MIN TEMP:  51; 6HR MAX TEMP:  68;

DE QUEEN       CLEAR     50  49  96 CALM      30.03R
6HR MIN TEMP:  50; 6HR MAX TEMP:  70;

$$

ARZ056-057-069-040700-
SOUTHEAST ARKANSAS

CITY           SKY/WX    TMP DP  RH WIND       PRES   REMARKS
PINE BLUFF     CLEAR     55  49  80 SW3       30.01R
6HR MIN TEMP:  54; 6HR MAX TEMP:  66;

STUTTGART      CLEAR     57  50  77 W7        29.99S
6HR MIN TEMP:  57; 6HR MAX TEMP:  64;

MONTICELLO     CLEAR     53  50  89 W3        30.00S
6HR MIN TEMP:  52; 6HR MAX TEMP:  68;


$$






USA.gov is the U.S. government's official web portal to all federal, state and local government web resources and services.